Regional Weather Roundup
Issued by NWS

Home | Current Version | Previous Version | Graphics & Text | Print | Product List | Glossary On
Versions: 1 2 3 4 5 6 7 8 9 10 11 12 13 14 15 16 17 18 19 20 21 22 23 24 25 26 27 28 29 30 31 32 33 34 35 36 37 38 39 40 41 42 43 44 45 46 47 48 49 50
000
ASUS43 KMPX 151010
RWRMN
WEATHER ROUNDUP FOR MINNESOTA
NATIONAL WEATHER SERVICE TWIN CITIES/CHANHASSEN MN
400 AM CST MON JAN 15 2018


NOTE: "FAIR" INDICATES FEW OR NO CLOUDS BELOW 12,000 FEET WITH NO
SIGNIFICANT WEATHER AND/OR OBSTRUCTIONS TO VISIBILITY. N/A MEANS
CURRENT SKY AND/OR WEATHER CONDITIONS ARE NOT AVAILABLE.

MNZ060>063-068>070-151100-
   Twin Cities Metro

CITY           SKY/WX    TMP DP  RH WIND       PRES   REMARKS
TWIN CITIES    LGT SNOW   9   5  84 NW20      30.20R FOG     WCI -10
ST PAUL        LGT SNOW   9   3  77 N17       30.22R WCI  -9
CRYSTAL        CLOUDY     8  -1  66 NW17G23   30.21R WCI -10
BLAINE         FLURRIES  10   3  72 NW12      30.20R WCI  -4
LAKEVILLE      CLOUDY     7   1  78 NW15G22   30.19R FOG     WCI -11
EDEN PRAIRIE   CLOUDY     7   1  76 NW15G22   30.21R HAZE    WCI -10
SOUTH ST PAUL  CLOUDY    10   4  74 N14       30.19R WCI  -5
LAKE ELMO      LGT SNOW  10   5  79 NW14      30.19R WCI  -5
$$
MNZ001>005-007-008-013>017-022>024-027-028-151100-
   Northwest Minnesota

CITY           SKY/WX    TMP DP  RH WIND       PRES   REMARKS
BEMIDJI        CLOUDY    -6 -11  78 NW13      30.33R WCI -25
HALLOCK        CLOUDY    -8 -13  77 N26G32    30.56R WCI -35
ROSEAU         CLOUDY    -4  -9  77 N20G25    30.46R HAZE    WCI -27
WARROAD        MOCLDY    -6  -9  84 NW15G24   30.44R HAZE    WCI -27
THIEF RVR FALL LGT SNOW  -9 -14  78 N20       30.47R WCI -34
CROOKSTON      LGT SNOW  -8 -13  77 N26       30.52R VSB 3/4 WCI -35
FOSSTON        CLOUDY    -9 -15  77 NW18      30.40R HAZE    WCI -33
DETROIT LAKES  CLOUDY    -6 -11  77 N16G24    30.39R HAZE    WCI -28
MOORHEAD       CLOUDY    -8 -15  71 N24G31    30.49R WCI -34
PARK RAPIDS    MIX PCPN  -5 -12  72 NW15      30.30R WCI -26
MAHNOMEN       CLOUDY    -8 -14  77 N18       30.41R WCI -32
$$
MNZ006-009>011-018-025>026-151100-
   North Central Minnesota

CITY           SKY/WX    TMP DP  RH WIND       PRES   REMARKS
BAUDETTE       CLOUDY    -2  -8  76 N13       30.37R WCI -20
FLAG ISLAND    CLOUDY    -4 -11  71 N18G25    30.43R WCI -26
INTL FALLS     LGT SNOW   0  -7  72 N13       30.31R WCI -18
WASKISH        DRIZZLE   -2  -8  78 N9G17     30.34R WCI -18
BIG FORK       LGT SNOW   0  -6  78 NW3       30.27R
LONGVILLE      CLOUDY    -2  -8  78 NW7       30.28R WCI -16
GRAND RAPIDS   FLURRIES   0  -5  79 NW15      30.26R WCI -19
CRANE LAKE     FLURRIES  -4  -8  84 CALM      30.29R
ORR            CLOUDY    -2  -8  78 NW5       30.22R WCI -12
COOK           CLOUDY    -2  -6  84 NW6       30.24R WCI -14
WALKER         CLOUDY    -5 -11  76 NW9       30.31R WCI -21
$$
MNZ012-019>021-037-151100-
   Northeast Minnesota

CITY           SKY/WX    TMP DP  RH WIND       PRES   REMARKS
DULUTH         FLURRIES   2  -3  80 N12       30.15R WCI -15
ELY            FLURRIES  -2  -6  84 MISG      30.19R
HIBBING        CLOUDY     0  -5  79 N14       30.21R WCI -19
EVELETH        FAIR       0  -7  74 N9        30.21R WCI -16
DULUTH HARBOR  LGT SNOW   9   3  78 N21       30.23R WCI -11
TWO HARBORS    MOCLDY     7   0  72 N8        30.15S WCI  -6
SILVER BAY     FAIR       5   0  78 VRB5      30.15S WCI  -4
GRAND MARAIS     N/A     12   5  73 N9G20     30.21R WCI   0
G MARAIS ARPRT LGT SNOW   3  -2  78 N10       30.12R WCI -12
$$
MNZ029>031-032-039>041-046>048-054>057-064-151100-
   West Central Minnesota

CITY           SKY/WX    TMP DP  RH WIND       PRES   REMARKS
FERGUS FALLS   CLOUDY    -8 -13  77 N24G36    30.46R HAZE    WCI -34
WHEATON        CLOUDY    -6 -11  77 NW13G26   30.47R WCI -25
MORRIS         CLOUDY    -6 -11  77 NW28G37   30.38R HAZE    WCI -33
ALEXANDRIA     CLOUDY    -4 -10  75 NW22G30   30.32R WCI -28
ELBOW LAKE     CLOUDY    -6 -11  79 N14G26    30.41R HAZE    WCI -27
WADENA         CLOUDY    -6 -11  77 NW10      30.32R WCI -23
GLENWOOD       CLOUDY    -4  -9  77 NW21      30.32R HAZE    WCI -28
APPLETON       CLOUDY    -2  -8  78 NW24G31   30.40R HAZE    WCI -27
BENSON         CLOUDY    -2  -9  71 N23G32    30.38R HAZE    WCI -26
ORTONVILLE     CLOUDY    -6 -11  77 NW20G26   30.43R HAZE    WCI -29
MADISON        CLOUDY     0  -8  71 NW25G31   30.41S HAZE    WCI -25
WILLMAR        CLOUDY    -2  -8  78 NW21      30.34R WCI -25
$$
MNZ033>034-036-042>043-049>051-058-059-151100-
   Central Minnesota

CITY           SKY/WX    TMP DP  RH WIND       PRES   REMARKS
ST CLOUD       CLOUDY     2  -4  76 NW12G22   30.26R WCI -15
SAUK CENTRE      N/A     -3  -9  74 NW17      30.30R WCI -25
PAYNESVILLE    CLOUDY    -1  -7  78 NW17G23   30.30R WCI -22
AITKIN         CLOUDY     0  -8  71 NW12      30.24R WCI -18
PINE RIVER     CLOUDY    -2  -9  71 N8G18     30.31R WCI -17
BRAINERD       MIX PCPN   0  -7  72 N18G25    30.27R WCI -21
STAPLES        CLOUDY    -4  -9  77 NW13      30.30R WCI -23
LONG PRAIRIE   FAIR      -4  -9  77 W15G22    30.29R WCI -25
LITTLE FALLS   CLOUDY     1  -9  60 NW9       30.29R WCI -14
LITCHFIELD     CLOUDY     1  -6  71 NW20G30   30.28R HAZE    WCI -20
BUFFALO        LGT SNOW   5  -1  76 NW9G17    30.26R WCI -10
MAPLE LAKE     CLOUDY     5  -1  78 MISG      30.26R HAZE
HUTCHINSON     CLOUDY     2  -4  77 NW18G29   30.28R HAZE    WCI -19
$$
MNZ037-044-045-052-053-151100-
   East Central Minnesota

CITY           SKY/WX    TMP DP  RH WIND       PRES   REMARKS
PRINCETON      FLURRIES   7   0  72 NW15      30.23R WCI -11
MORA           MOCLDY     7   1  78 N8G16     30.23R WCI  -6
CAMBRIDGE      FLURRIES   9   0  66 NW6       30.22R WCI  -1
RUSH CITY      CLOUDY     7   1  75 N13G18    30.21R WCI  -9
MOOSE LAKE     FLURRIES   5   0  78 N9G17     30.19R WCI  -9
HINCKLEY       CLOUDY     9   1  72 N14       30.20R WCI  -8
CLOQUET        FLURRIES   3  -2  78 NW10      30.18R WCI -12
MCGREGOR       CLOUDY     3   0  85 NW14      30.23R WCI -15
$$
MNZ071>073-080-081-089-090-097-098-151100-
   Southwest Minnesota

CITY           SKY/WX    TMP DP  RH WIND       PRES   REMARKS
MONTEVIDEO     CLOUDY    -4  -8  84 N22       30.39R FOG     WCI -28
GRANITE FALLS  CLOUDY    -2  -7  78 NW21G30   30.39R HAZE    WCI -25
CANBY          CLOUDY    -3  -9  75 W22G30    30.41S HAZE    WCI -27
MARSHALL       LGT SNOW  -5 -10  79 NW22G33   30.37R WCI -30
REDWOOD FALLS  CLOUDY    -4  -8  83 NW14G23   30.34R FOG     WCI -24
OLIVIA         CLOUDY     0  -6  78 NW22G29   30.32R HAZE    WCI -23
PIPESTONE      CLEAR     -6 -11  77 N21       30.33R WCI -30
WINDOM         CLOUDY    -6 -18  54 NW25G33   30.28R HAZE    WCI -32
WORTHINGTON    MOCLDY    -5 -10  79 NW24      30.30R WCI -31
JACKSON        MIX PCPN  -4  -8  84 NW25G31   30.27S WCI -30
SLAYTON        PTCLDY    -5 -11  77 NW24      30.31R WCI -31
$$
MNZ065>067-074>077-082>085-091>093-151100-
   South Central Minnesota

CITY           SKY/WX    TMP DP  RH WIND       PRES   REMARKS
MANKATO        LGT SNOW   1  -3  83 NW22      30.25R FOG     WCI -21
NEW ULM        LGT SNOW  -2  -8  78 NW26G32   30.29R WCI -28
ST JAMES       LGT SNOW  -2  -6  84 NW23G29   30.30R WCI -26
FAIRMONT       LGT SNOW  -1  -7  75 NW23G33   30.27R WCI -25
FARIBAULT      MOCLDY     7   1  78 W10G20    30.19R WCI  -8
OWATONNA       LGT SNOW   7   1  78 NW23      30.18R WCI -14
WASECA         CLOUDY     5   0  78 NW21      30.22R HAZE    WCI -16
ALBERT LEA     LGT SNOW   3  -2  78 NW17G25   30.17R WCI -17
$$
MNZ078>079-086>088-094>096-151100-
   Southeast Minnesota

CITY           SKY/WX    TMP DP  RH WIND       PRES   REMARKS
ROCHESTER      LGT SNOW   8   5  87 NW22      30.09R FOG     WCI -12
RED WING       LGT SNOW  12   3  67 NW12G20   30.16R WCI  -2
STANTON        LGT SNOW  10   5  80 NW15      30.17R WCI  -7
DODGE CENTER   LGT SNOW   7   1  78 NW18G28   30.12R WCI -12
WINONA         FLURRIES  14  10  85 W9          N/A  WCI   2
AUSTIN         LGT SNOW   5   0  78 NW20G32   30.14R WCI -15
PRESTON        LGT SNOW   8   4  83 NW18G24   30.08R WCI -11
$$
ABBREVIATIONS USED IN REMARKS
   TC - TEMPERATURES IN CELSIUS
  WCI - WIND CHILL INDEX
   HX - HEAT INDEX
  VSB - VISIBILITY
$$




USA.gov is the U.S. government's official web portal to all federal, state and local government web resources and services.